Torna al catalogo

CENTAURI-6

AttivoComunicazioniVLEO
NORAD 59451·PAYLOAD·🇦🇺 Australia

Lanciato Apr 7, 2024 da Cape Canaveral Space Force Station

Loading…

Prossimi Passaggi (prossime 24 ore)

TLE

AggiornatoSource: Space-Track

Epoca: Sep 14, 2026, 09:51 UTC

1 59451U 24066K   26257.41053361  .00003493  00000-0  24924-3 0  9990
2 59451  45.6054 148.2528 0001447 219.0263 141.0517 15.06496972133576

Traccia CENTAURI-6 in tempo reale con AllMySat

Download on the App Store